Weather History for KGWB - October, 2012

Change the Weather History Date:

Thursday, October 18, 2012

  Actual Average (KFWA) Record (KFWA)
Temperature  
Mean Temperature 51 °F 52 °F  
Max Temperature 60 °F 63 °F 86 °F (1908)
Min Temperature 42 °F 41 °F 24 °F (1976)
Degree Days  
Heating Degree Days 14 13  
Month to date heating degree days 193  
Since 1 July heating degree days 309  
Cooling Degree Days 0 0  
Month to date cooling degree days 8  
Year to date cooling degree days 808  
Growing Degree Days 1 (Base 50)    
Moisture  
Dew Point 40 °F    
Average Humidity 62    
Maximum Humidity 94    
Minimum Humidity 31    
Precipitation  
Precipitation 0.45 in 0.09 in 2.96 in (1947)
Month to date precipitation 1.70  
Year to date precipitation 31.34  
Snow  
Snow 0.00 in 0.00 in 0.50 in (1972)
Month to date snowfall 0.1  
Since 1 July snowfall 0.1  
Since 1 September snowfall 0.1  
Snow Depth -    
Sea Level Pressure  
Sea Level Pressure 29.52 in    
Wind  
Wind Speed 8 mph (SSW)    
Max Wind Speed 16 mph    
Max Gust Speed 29 mph    
Visibility 10 miles    
Events Rain    
T = Trace of Precipitation, MM = Missing Value Source: NWS Daily Summary

Daily Weather History Graph

Daily Weather History Graph

Search for Another Location

Airport or City:

Trip Planner

Search our weather history database for the weather conditions in past years. The results will help you decide how hot, cold, wet, or windy it might be!

Date:

Astronomy

Oct. 18, 2012 Rise Set
Actual Time 7:55 AM EDT 6:54 PM EDT
Civil Twilight 7:27 AM EDT 7:21 PM EDT
Nautical Twilight 6:55 AM EDT 7:54 PM EDT
Astronomical Twilight 6:23 AM EDT 8:25 PM EDT
Moon 11:39 AM EDT (10/18) 9:25 PM EDT (10/18)
Length of Visible Light 11h 54m
Length of Day
10h 58m
Waxing Crescent, 14% of the Moon is Illuminated
Oct 18
Waxing Crescent
Oct 21
First Quarter
Oct 29
Full
Nov 6
Last Quarter
Nov 13
New

Hourly Weather History & Observations

Time (EDT) Temp. Windchill Dew Point Humidity Pressure Visibility Wind Dir Wind Speed Gust Speed Precip Events Conditions
12:15 AM 60.8 °F - 51.8 °F 72% 29.52 in 7.0 mi SE 3.5 mph - 0.05 in Rain Light Rain
12:35 AM 59.0 °F - 53.6 °F 82% 29.49 in 5.0 mi SE 6.9 mph - 0.10 in Rain Rain
12:55 AM 59.0 °F - 51.8 °F 77% 29.48 in 10.0 mi SE 4.6 mph 16.1 mph 0.10 in Rain Light Rain
1:15 AM 59.0 °F - 51.8 °F 77% 29.47 in 10.0 mi SE 8.1 mph - N/A Rain Light Rain
1:35 AM 59.0 °F - 51.8 °F 77% 29.46 in 10.0 mi SE 5.8 mph - N/A   Overcast
1:55 AM 59.0 °F - 50.0 °F 72% 29.45 in 10.0 mi SE 5.8 mph - N/A   Scattered Clouds
2:15 AM 59.0 °F - 50.0 °F 72% 29.44 in 10.0 mi SE 4.6 mph - N/A   Clear
2:35 AM 59.0 °F - 50.0 °F 72% 29.44 in 10.0 mi SE 3.5 mph - N/A   Mostly Cloudy
2:55 AM 59.0 °F - 50.0 °F 72% 29.44 in 10.0 mi SSE 4.6 mph - N/A   Mostly Cloudy
3:15 AM 59.0 °F - 50.0 °F 72% 29.43 in 10.0 mi SE 6.9 mph - N/A   Mostly Cloudy
3:35 AM 59.0 °F - 50.0 °F 72% 29.42 in 10.0 mi SE 4.6 mph - N/A   Overcast
3:55 AM 59.0 °F - 48.2 °F 67% 29.41 in 10.0 mi South 4.6 mph - N/A   Overcast
4:15 AM 59.0 °F - 50.0 °F 72% 29.40 in 10.0 mi SSW 8.1 mph 16.1 mph N/A   Overcast
4:35 AM 59.0 °F - 51.8 °F 77% 29.40 in 10.0 mi SSW 10.4 mph 16.1 mph N/A Rain Light Rain
4:55 AM 57.2 °F - 51.8 °F 82% 29.39 in 7.0 mi South 9.2 mph 18.4 mph 0.01 in Rain Light Rain
5:15 AM 55.4 °F - 51.8 °F 88% 29.38 in 10.0 mi South 9.2 mph 17.3 mph 0.01 in Rain Light Rain
5:35 AM 55.4 °F - 51.8 °F 88% 29.38 in 7.0 mi South 6.9 mph - 0.04 in Rain Rain
5:55 AM 55.4 °F - 51.8 °F 88% 29.38 in 5.0 mi South 8.1 mph - 0.09 in Rain Rain
6:15 AM 55.4 °F - 51.8 °F 88% 29.38 in 7.0 mi South 6.9 mph - 0.03 in Rain Rain
6:35 AM 55.4 °F - 51.8 °F 88% 29.40 in 7.0 mi SW 12.7 mph 17.3 mph 0.05 in Rain Rain
6:55 AM 51.8 °F - 48.2 °F 88% 29.41 in 7.0 mi WSW 13.8 mph 19.6 mph 0.11 in Rain Rain
7:15 AM 50.0 °F - 48.2 °F 94% 29.43 in 7.0 mi WSW 5.8 mph - 0.03 in Rain Rain
7:35 AM 50.0 °F - 46.4 °F 87% 29.45 in 5.0 mi WSW 10.4 mph 19.6 mph 0.09 in Rain Rain
7:55 AM 50.0 °F - 46.4 °F 87% 29.44 in 7.0 mi SW 8.1 mph 16.1 mph 0.13 in Rain Rain
8:15 AM 50.0 °F - 46.4 °F 87% 29.46 in 10.0 mi SSW 8.1 mph - 0.01 in Rain Light Rain
8:35 AM 50.0 °F - 46.4 °F 87% 29.46 in 10.0 mi SW 11.5 mph 18.4 mph 0.01 in   Overcast
8:55 AM 50.0 °F - 44.6 °F 82% 29.47 in 10.0 mi SW 9.2 mph - 0.01 in   Overcast
9:15 AM 50.0 °F - 44.6 °F 82% 29.48 in 10.0 mi SW 9.2 mph - N/A   Scattered Clouds
9:35 AM 50.0 °F - 44.6 °F 82% 29.49 in 10.0 mi SSW 10.4 mph 17.3 mph N/A   Mostly Cloudy
9:55 AM 48.2 °F - 42.8 °F 82% 29.50 in 10.0 mi SW 10.4 mph 17.3 mph N/A   Mostly Cloudy
10:15 AM 50.0 °F - 42.8 °F 76% 29.51 in 10.0 mi SW 11.5 mph 20.7 mph N/A   Scattered Clouds
10:35 AM 50.0 °F - 41.0 °F 71% 29.51 in 10.0 mi SW 12.7 mph 21.9 mph N/A   Scattered Clouds
10:55 AM 50.0 °F - 41.0 °F 71% 29.52 in 10.0 mi SSW 11.5 mph 19.6 mph N/A   Mostly Cloudy
11:15 AM 51.8 °F - 41.0 °F 67% 29.53 in 10.0 mi SW 12.7 mph 19.6 mph N/A   Scattered Clouds
11:35 AM 53.6 °F - 39.2 °F 58% 29.54 in 10.0 mi SW 13.8 mph 20.7 mph N/A   Clear
11:55 AM 53.6 °F - 37.4 °F 54% 29.55 in 10.0 mi SW 10.4 mph 20.7 mph N/A   Clear
12:15 PM 53.6 °F - 37.4 °F 54% 29.56 in 10.0 mi SSW 15.0 mph 20.7 mph N/A   Clear
12:35 PM 55.4 °F - 37.4 °F 51% 29.56 in 10.0 mi SW 12.7 mph 20.7 mph N/A   Clear
12:55 PM 55.4 °F - 35.6 °F 47% 29.56 in 10.0 mi SSW 12.7 mph 21.9 mph N/A   Clear
1:15 PM 57.2 °F - 35.6 °F 44% 29.55 in 10.0 mi SSW 10.4 mph 19.6 mph N/A   Clear
1:35 PM 57.2 °F - 35.6 °F 44% 29.55 in 10.0 mi South 10.4 mph 20.7 mph N/A   Clear
1:55 PM 59.0 °F - 33.8 °F 39% 29.54 in 10.0 mi South 16.1 mph 21.9 mph N/A   Clear
2:15 PM 59.0 °F - 33.8 °F 39% 29.54 in 10.0 mi SSW 13.8 mph 21.9 mph N/A   Scattered Clouds
2:35 PM 59.0 °F - 33.8 °F 39% 29.54 in 10.0 mi SSW 11.5 mph 25.3 mph N/A   Scattered Clouds
2:55 PM 59.0 °F - 33.8 °F 39% 29.54 in 10.0 mi SSW 13.8 mph 23.0 mph N/A   Scattered Clouds
3:15 PM 59.0 °F - 32.0 °F 36% 29.53 in 10.0 mi SSW 12.7 mph 24.2 mph N/A   Scattered Clouds
3:35 PM 59.0 °F - 30.2 °F 34% 29.54 in 10.0 mi SW 11.5 mph 21.9 mph N/A   Scattered Clouds
3:55 PM 59.0 °F - 32.0 °F 36% 29.54 in 10.0 mi SSW 15.0 mph 23.0 mph N/A   Clear
4:15 PM 60.8 °F - 30.2 °F 31% 29.54 in 10.0 mi SSW 13.8 mph 28.8 mph N/A   Clear
4:35 PM 59.0 °F - 32.0 °F 36% 29.55 in 10.0 mi SSW 13.8 mph 19.6 mph N/A   Scattered Clouds
4:55 PM 60.8 °F - 30.2 °F 31% 29.55 in 10.0 mi SW 13.8 mph 26.5 mph N/A   Clear
5:15 PM 59.0 °F - 30.2 °F 34% 29.56 in 10.0 mi SSW 11.5 mph 23.0 mph N/A   Scattered Clouds
5:35 PM 59.0 °F - 30.2 °F 34% 29.56 in 10.0 mi SSW 13.8 mph 19.6 mph N/A   Mostly Cloudy
5:55 PM 59.0 °F - 30.2 °F 34% 29.57 in 10.0 mi SSW 15.0 mph 20.7 mph N/A   Mostly Cloudy
6:15 PM 57.2 °F - 28.4 °F 33% 29.58 in 10.0 mi South 16.1 mph 21.9 mph N/A   Mostly Cloudy
6:35 PM 57.2 °F - 30.2 °F 36% 29.58 in 10.0 mi SSW 11.5 mph 18.4 mph N/A   Mostly Cloudy
6:55 PM 55.4 °F - 30.2 °F 38% 29.59 in 10.0 mi SSW 6.9 mph - N/A   Overcast
7:15 PM 55.4 °F - 30.2 °F 38% 29.60 in 10.0 mi SW 6.9 mph - N/A   Mostly Cloudy
7:35 PM 55.4 °F - 30.2 °F 38% 29.60 in 10.0 mi SSW 5.8 mph - N/A   Scattered Clouds
7:55 PM 53.6 °F - 32.0 °F 44% 29.61 in 10.0 mi SSW 5.8 mph - N/A   Mostly Cloudy
8:15 PM 53.6 °F - 32.0 °F 44% 29.62 in 10.0 mi SW 4.6 mph - N/A   Overcast
8:35 PM 53.6 °F - 32.0 °F 44% 29.63 in 10.0 mi SW 4.6 mph - N/A   Overcast
8:55 PM 53.6 °F - 32.0 °F 44% 29.63 in 10.0 mi SSW 3.5 mph - N/A   Overcast
9:15 PM 53.6 °F - 32.0 °F 44% 29.64 in 10.0 mi West 12.7 mph 17.3 mph N/A   Overcast
9:35 PM 50.0 °F - 33.8 °F 54% 29.64 in 10.0 mi West 4.6 mph - N/A   Mostly Cloudy
9:55 PM 48.2 °F - 33.8 °F 58% 29.64 in 10.0 mi Calm Calm - N/A   Scattered Clouds
10:15 PM 46.4 °F - 35.6 °F 66% 29.65 in 10.0 mi Calm Calm - N/A   Clear
10:35 PM 44.6 °F - 35.6 °F 71% 29.65 in 10.0 mi Calm Calm - N/A   Clear
10:55 PM 42.8 °F 40.1 °F 35.6 °F 76% 29.63 in 10.0 mi East 4.6 mph - N/A   Clear
11:15 PM 42.8 °F - 35.6 °F 76% 29.63 in 10.0 mi Calm Calm - N/A   Scattered Clouds
11:35 PM 42.8 °F - 37.4 °F 81% 29.63 in 10.0 mi Calm Calm - N/A   Scattered Clouds
11:55 PM 44.6 °F - 37.4 °F 76% 29.64 in 10.0 mi Calm Calm - N/A   Mostly Cloudy